Date String (YYYY-MM-DD hh:mm:ss) UTC,Instrument flags,Ambient pressure (hPa),Sample flow (lpm),Bypass flow (lpm),Sample temperature (°C),Ambient temperature (°C),ASC tube jacket temperature (°C),LED temperature (°C),Box temperature (°C),Sample RH (%),Span deviation,Mass concentration (μg/m³),Mass concentration (μg/m³),Mass concentration (μg/m³)
DateTimeUTC,F1_M11,P_M11,Q1_M11,Q2_M11,T1_M11,T2_M11,T3_M11,T4_M11,T5_M11,U1_M11,ZSPAN_M11,X0_M11,X2_M11,X1_M11
2022-11-23 12:00:00,,0820.6,5.00,0.00,21.6,19.8,00.0,30.8,23.3,06.0,0000.0,0004.19,0001.22,0000.99
2022-11-23 12:01:00,,0820.6,5.02,0.00,21.6,19.7,00.0,30.8,23.2,06.2,0000.0,0003.60,0001.19,0000.95
2022-11-23 12:02:00,,0820.6,4.99,0.00,21.6,19.8,00.0,30.7,23.3,06.2,0000.0,0002.84,0001.08,0000.86
2022-11-23 12:03:00,,0820.6,5.00,0.00,21.6,19.9,00.0,30.7,23.3,06.3,0000.0,0001.77,0000.95,0000.77
2022-11-23 12:04:00,,0820.6,5.01,0.00,21.6,19.9,00.0,30.7,23.3,06.4,0000.0,0001.54,0000.86,0000.71
2022-11-23 12:05:00,,0820.6,5.00,0.00,21.6,20.0,00.0,30.7,23.4,06.5,0000.0,0001.47,0000.82,0000.68
2022-11-23 12:06:00,,0820.6,4.99,0.00,21.6,20.0,00.0,30.7,23.4,06.2,0000.0,0001.55,0000.86,0000.70
2022-11-23 12:07:00,,0820.6,5.00,0.00,21.6,20.4,00.0,30.6,23.4,06.1,0000.0,0001.53,0000.87,0000.72
2022-11-23 12:08:00,,0820.6,5.01,0.00,21.7,21.5,00.0,30.6,23.7,05.9,0000.0,0001.49,0000.88,0000.73
2022-11-23 12:09:00,,0820.5,4.98,0.00,21.8,22.0,00.0,30.6,23.9,05.5,0000.0,0001.58,0000.89,0000.75
2022-11-23 12:10:00,,0820.6,5.00,0.00,21.9,21.7,00.0,30.6,23.9,05.3,0000.0,0001.57,0000.89,0000.75
2022-11-23 12:11:00,,0820.5,5.00,0.00,21.9,21.4,00.0,30.7,23.9,05.5,0000.0,0001.61,0000.90,0000.75
2022-11-23 12:12:00,,0820.4,5.00,0.00,21.9,21.1,00.0,30.7,23.8,05.9,0000.0,0001.63,0000.91,0000.74
2022-11-23 12:13:00,,0820.4,5.02,0.00,21.9,21.0,00.0,30.7,23.8,05.4,0000.0,0001.43,0000.90,0000.74
2022-11-23 12:14:00,,0820.4,4.99,0.00,21.9,20.8,00.0,30.8,23.7,05.0,0000.0,0001.41,0000.88,0000.72
2022-11-23 12:15:00,,0820.4,4.99,0.00,21.9,20.7,00.0,30.8,23.7,04.8,0000.0,0001.42,0000.87,0000.70
2022-11-23 12:16:00,,0820.3,5.00,0.00,21.9,20.6,00.0,30.8,23.7,04.7,0000.0,0001.41,0000.86,0000.67
2022-11-23 12:17:00,,0820.3,5.01,0.00,21.9,20.6,00.0,30.8,23.7,04.4,0000.0,0001.56,0000.80,0000.63
2022-11-23 12:18:00,,0820.3,5.00,0.00,21.8,20.5,00.0,30.8,23.6,04.3,0000.0,0001.84,0000.77,0000.59
2022-11-23 12:19:00,,0820.3,5.00,0.00,21.8,20.4,00.0,30.8,23.6,04.3,0000.0,0001.71,0000.71,0000.55
2022-11-23 12:20:00,,0820.3,5.00,0.00,21.8,20.3,00.0,30.8,23.6,04.3,0000.0,0001.59,0000.67,0000.52
2022-11-23 12:21:00,,0820.2,5.00,0.00,21.8,20.4,00.0,30.8,23.6,04.8,0000.0,0001.54,0000.64,0000.50
2022-11-23 12:22:00,,0820.2,5.00,0.00,21.8,20.3,00.0,30.7,23.6,04.8,0000.0,0001.50,0000.61,0000.48
2022-11-23 12:23:00,,0820.2,5.00,0.00,21.8,20.3,00.0,30.7,23.6,04.4,0000.0,0001.38,0000.55,0000.46
2022-11-23 12:24:00,,0820.2,5.00,0.00,21.8,20.3,00.0,30.7,23.6,04.5,0000.0,0001.34,0000.54,0000.45
2022-11-23 12:25:00,,0820.2,5.00,0.00,21.8,20.3,00.0,30.7,23.6,04.4,0000.0,0001.34,0000.53,0000.44
2022-11-23 12:26:00,,0820.2,5.00,0.00,21.8,20.3,00.0,30.7,23.5,04.2,0000.0,0001.30,0000.52,0000.43
2022-11-23 12:27:00,,0820.2,5.00,0.00,21.7,20.3,00.0,30.7,23.5,04.3,0000.0,0002.04,0000.50,0000.43
2022-11-23 12:28:00,,0820.2,5.00,0.00,21.7,20.4,00.0,30.7,23.6,04.3,0000.0,0002.33,0000.51,0000.43
2022-11-23 12:29:00,,0820.2,5.00,0.00,21.8,21.3,00.0,30.6,23.7,04.6,0000.0,0002.04,0000.51,0000.43
2022-11-23 12:30:00,,0820.3,5.00,0.00,21.9,22.1,00.0,30.6,24.0,04.7,0000.0,0002.03,0000.50,0000.43
2022-11-23 12:31:00,,0820.2,4.99,0.00,22.0,21.8,00.0,30.7,24.0,04.6,0000.0,0002.04,0000.50,0000.43
2022-11-23 12:32:00,,0820.2,5.00,0.00,22.0,21.4,00.0,30.8,23.9,04.7,0000.0,0002.61,0000.51,0000.43
2022-11-23 12:33:00,,0820.2,5.00,0.00,21.9,20.9,00.0,30.8,23.7,04.5,0000.0,0003.22,0000.49,0000.43
2022-11-23 12:34:00,,0820.2,5.00,0.00,21.9,20.6,00.0,30.8,23.6,04.6,0000.0,0003.18,0000.49,0000.44
2022-11-23 12:35:00,,0820.1,5.00,0.00,21.8,20.3,00.0,30.8,23.5,04.7,0000.0,0003.20,0000.49,0000.44
2022-11-23 12:36:00,,0820.1,5.01,0.00,21.8,20.2,00.0,30.8,23.5,04.6,0000.0,0003.20,0000.49,0000.44
2022-11-23 12:37:00,,0820.0,5.00,0.00,21.7,20.0,00.0,30.7,23.4,04.8,0000.0,0003.22,0000.50,0000.44
2022-11-23 12:38:00,,0819.9,5.00,0.00,21.7,20.0,00.0,30.7,23.3,04.5,0000.0,0002.54,0000.50,0000.44
2022-11-23 12:39:00,,0819.9,5.00,0.00,21.7,20.0,00.0,30.7,23.3,04.4,0000.0,0001.95,0000.52,0000.44
2022-11-23 12:40:00,,0820.0,5.01,0.00,21.6,19.9,00.0,30.7,23.3,04.4,0000.0,0001.95,0000.52,0000.43
2022-11-23 12:41:00,,0820.0,5.01,0.00,21.6,19.9,00.0,30.7,23.3,04.4,0000.0,0001.96,0000.52,0000.43
2022-11-23 12:42:00,,0819.9,5.01,0.00,21.6,19.8,00.0,30.7,23.2,04.5,0000.0,0001.95,0000.51,0000.43
2022-11-23 12:43:00,,0819.9,4.98,0.00,21.5,19.8,00.0,30.6,23.3,04.6,0000.0,0001.53,0000.51,0000.41
2022-11-23 12:44:00,,0819.9,5.00,0.00,21.5,19.9,00.0,30.6,23.3,04.6,0000.0,0000.72,0000.50,0000.41
2022-11-23 12:45:00,,0819.9,5.01,0.00,21.5,19.9,00.0,30.6,23.3,04.6,0000.0,0000.76,0000.50,0000.40
2022-11-23 12:46:00,,0820.0,4.99,0.00,21.5,20.0,00.0,30.6,23.3,04.5,0000.0,0001.02,0000.52,0000.39
2022-11-23 12:47:00,,0820.0,4.99,0.00,21.5,20.0,00.0,30.6,23.4,04.6,0000.0,0001.00,0000.51,0000.39
2022-11-23 12:48:00,,0820.0,5.00,0.00,21.6,20.4,00.0,30.5,23.4,04.7,0000.0,0001.16,0000.56,0000.40
2022-11-23 12:49:00,,0819.9,5.01,0.00,21.7,21.5,00.0,30.5,23.7,04.5,0000.0,0001.20,0000.57,0000.40
2022-11-23 12:50:00,,0819.9,4.99,0.00,21.8,22.1,00.0,30.5,23.9,04.3,0000.0,0001.13,0000.54,0000.40
2022-11-23 12:51:00,,0819.9,5.00,0.00,21.8,21.8,00.0,30.6,23.9,04.3,0000.0,0001.16,0000.55,0000.40
2022-11-23 12:52:00,,0819.9,5.02,0.00,21.9,21.5,00.0,30.6,23.9,04.2,0000.0,0001.29,0000.57,0000.40
2022-11-23 12:53:00,,0819.9,4.99,0.00,21.9,21.3,00.0,30.7,23.8,04.2,0000.0,0001.33,0000.59,0000.40
2022-11-23 12:54:00,,0819.8,5.00,0.00,21.9,21.1,00.0,30.7,23.8,04.3,0000.0,0001.30,0000.58,0000.41
2022-11-23 12:55:00,,0819.9,5.00,0.00,21.9,21.0,00.0,30.7,23.8,04.4,0000.0,0001.34,0000.61,0000.41
2022-11-23 12:56:00,,0819.8,5.01,0.00,21.9,20.9,00.0,30.7,23.8,04.5,0000.0,0001.28,0000.60,0000.41
2022-11-23 12:57:00,,0819.8,5.00,0.00,21.9,20.8,00.0,30.7,23.8,04.4,0000.0,0001.05,0000.58,0000.40
2022-11-23 12:58:00,,0819.8,5.00,0.00,21.9,20.8,00.0,30.7,23.8,04.3,0000.0,0002.61,0000.58,0000.40
2022-11-23 12:59:00,,0819.9,5.00,0.00,21.9,20.7,00.0,30.8,23.8,04.7,0000.0,0002.54,0000.53,0000.39
